Fort Stockton, TX

9:23 PM CDT on June 28, 2017 (GMT -0500)
Fort Stockton-Pecos County

Weather History for KFST - October, 2011

Change the Weather History Date:

Thursday, October 27, 2011

  Actual Average Record
Temperature  
Mean Temperature 58 °F -  
Max Temperature 72 °F 73 °F 90 °F (2014)
Min Temperature 44 °F 50 °F 39 °F (1997)
Degree Days  
Heating Degree Days 7    
Growing Degree Days 8 (Base 50)    
Moisture  
Dew Point 42 °F    
Average Humidity 76    
Maximum Humidity 100    
Minimum Humidity 43    
Precipitation  
Precipitation 0.00 in - - ()
Sea Level Pressure  
Sea Level Pressure 30.03 in    
Wind  
Wind Speed 14 mph (North)    
Max Wind Speed 20 mph    
Max Gust Speed 28 mph    
Visibility 8 miles    
Events Rain , Thunderstorm    
Averages and records for this station are not official NWS values.
T = Trace of Precipitation, MM = Missing Value Source: NWS Daily Summary

Daily Weather History Graph

Daily Weather History Graph

Search for Another Location

Airport or City:

Trip Planner

Search our weather history database for the weather conditions in past years. The results will help you decide how hot, cold, wet, or windy it might be!

Date:

Astronomy

Oct. 27, 2011 Rise Set
Actual Time 8:02 AM CDT 7:07 PM CDT
Civil Twilight 7:38 AM CDT 7:32 PM CDT
Nautical Twilight 7:09 AM CDT 8:01 PM CDT
Astronomical Twilight 6:41 AM CDT 8:29 PM CDT
Moon 9:00 AM CDT (10/27) 7:48 PM CDT (10/27)
Length of Visible Light 11h 54m
Length of Day
11h 05m
New Moon, 1% of the Moon is Illuminated
Oct 27
New Moon
Nov 2
First Quarter
Nov 10
Full
Nov 18
Last Quarter
Nov 25
New

Hourly Weather History & Observations

Time (CDT) Temp. Windchill Dew Point Humidity Pressure Visibility Wind Dir Wind Speed Gust Speed Precip Events Conditions
12:53 AM 72.0 °F - 48.9 °F 44% 29.62 in 10.0 mi SSE 16.1 mph 26.5 mph N/A   Mostly Cloudy
1:02 AM 71.6 °F - 48.2 °F 43% 29.77 in 10.0 mi SE 17.3 mph 24.2 mph N/A Thunderstorm Mostly Cloudy
1:17 AM 71.6 °F - 48.2 °F 43% 29.79 in 10.0 mi ESE 10.4 mph 19.6 mph N/A   Mostly Cloudy
1:53 AM 66.9 °F - 50.0 °F 54% 29.69 in 10.0 mi NE 15.0 mph 23.0 mph N/A   Mostly Cloudy
2:10 AM 62.6 °F - 48.2 °F 59% 29.82 in 10.0 mi NE 19.6 mph 25.3 mph 0.00 in Rain , Thunderstorm Light Thunderstorms and Rain
2:27 AM 60.8 °F - 48.2 °F 63% 29.84 in 10.0 mi NE 17.3 mph 27.6 mph 0.00 in   Partly Cloudy
3:53 AM 55.9 °F - 46.0 °F 69% 29.73 in 10.0 mi NE 11.5 mph 19.6 mph N/A   Partly Cloudy
4:53 AM 54.0 °F - 44.1 °F 69% 29.81 in 10.0 mi North 12.7 mph - N/A   Partly Cloudy
5:11 AM 53.6 °F - 42.8 °F 67% 29.95 in 10.0 mi North 15.0 mph - N/A   Mostly Cloudy
5:53 AM 54.0 °F - 42.1 °F 64% 29.85 in 10.0 mi North 13.8 mph - N/A   Overcast
6:53 AM 53.1 °F - 41.0 °F 64% 29.89 in 10.0 mi North 15.0 mph 20.7 mph N/A   Overcast
7:53 AM 48.0 °F - 39.9 °F 74% 29.94 in 10.0 mi North 16.1 mph - N/A   Overcast
8:53 AM 45.0 °F 38.5 °F 41.0 °F 86% 29.99 in 5.0 mi North 13.8 mph 21.9 mph 0.00 in   Overcast
9:16 AM 46.4 °F 39.0 °F 39.2 °F 76% 30.09 in 5.0 mi NNE 19.6 mph - N/A   Haze
9:36 AM 46.4 °F 40.7 °F 39.2 °F 76% 30.11 in 9.0 mi North 12.7 mph - N/A   Overcast
9:53 AM 46.0 °F 39.9 °F 39.9 °F 79% 30.03 in 8.0 mi North 13.8 mph - N/A   Overcast
10:29 AM 44.6 °F 38.8 °F 41.0 °F 87% 30.13 in 7.0 mi NNW 11.5 mph - N/A   Overcast
10:53 AM 46.0 °F 40.2 °F 42.1 °F 86% 30.04 in 8.0 mi NNW 12.7 mph - N/A   Overcast
11:31 AM 44.6 °F 38.4 °F 42.8 °F 93% 30.15 in 3.0 mi North 12.7 mph - 0.00 in Rain Light Rain
11:48 AM 44.6 °F 39.2 °F 44.6 °F 100% 30.16 in 2.5 mi North 10.4 mph - 0.00 in Rain Light Rain
11:53 AM 45.0 °F 39.3 °F 43.0 °F 93% 30.07 in 3.0 mi North 11.5 mph - 0.00 in Rain Light Rain
12:15 PM 46.4 °F 41.1 °F 42.8 °F 87% 30.16 in 10.0 mi North 11.5 mph - 0.00 in   Overcast
12:53 PM 46.0 °F 40.2 °F 42.1 °F 86% 30.07 in 10.0 mi NNW 12.7 mph - 0.00 in   Overcast
1:28 PM 44.6 °F 38.1 °F 42.8 °F 93% 30.15 in 4.0 mi North 13.8 mph - 0.00 in Rain Light Rain
1:46 PM 44.6 °F 38.1 °F 42.8 °F 93% 30.15 in 7.0 mi NNW 13.8 mph - 0.00 in   Overcast
1:53 PM 46.0 °F 39.6 °F 42.1 °F 86% 30.07 in 9.0 mi North 15.0 mph - 0.00 in   Overcast
2:53 PM 46.9 °F - 39.0 °F 74% 30.06 in 10.0 mi NNW 12.7 mph - N/A   Overcast
3:53 PM 48.9 °F - 37.9 °F 66% 30.06 in 10.0 mi NNW 11.5 mph - N/A   Overcast
4:46 PM 46.4 °F 40.4 °F 41.0 °F 81% 30.14 in 9.0 mi North 13.8 mph - 0.00 in   Overcast
4:53 PM 46.0 °F 40.2 °F 41.0 °F 83% 30.08 in 8.0 mi North 12.7 mph - 0.00 in   Overcast
5:17 PM 44.6 °F 38.1 °F 42.8 °F 93% 30.15 in 4.0 mi North 13.8 mph - N/A   Overcast
5:27 PM 44.6 °F 38.1 °F 41.0 °F 87% 30.15 in 7.0 mi North 13.8 mph - N/A   Overcast
5:35 PM 44.6 °F 38.1 °F 41.0 °F 87% 30.15 in 10.0 mi NNW 13.8 mph - N/A   Overcast
5:40 PM 44.6 °F 38.4 °F 41.0 °F 87% 30.15 in 10.0 mi NNW 12.7 mph - N/A   Overcast
5:53 PM 46.0 °F 39.9 °F 39.9 °F 79% 30.10 in 10.0 mi North 13.8 mph - N/A   Overcast
6:03 PM 44.6 °F 38.1 °F 39.2 °F 81% 30.17 in 10.0 mi NNW 13.8 mph - N/A   Overcast
6:53 PM 46.0 °F 41.0 °F 37.9 °F 73% 30.12 in 10.0 mi North 10.4 mph - N/A   Overcast
7:53 PM 46.0 °F 40.6 °F 37.0 °F 71% 30.15 in 10.0 mi North 11.5 mph - N/A   Overcast
8:53 PM 45.0 °F 40.1 °F 37.0 °F 74% 30.17 in 10.0 mi North 9.2 mph - N/A   Overcast
9:53 PM 44.1 °F - 36.0 °F 73% 30.17 in 10.0 mi Calm Calm - N/A   Mostly Cloudy
10:53 PM 45.0 °F 42.6 °F 36.0 °F 71% 30.19 in 10.0 mi North 4.6 mph - N/A   Overcast
11:53 PM 44.1 °F 40.8 °F 36.0 °F 73% 30.20 in 10.0 mi North 5.8 mph - N/A   Overcast